www.pogodaiklimat.ru
Время
(UTC), дата
18 14.02
21 14.02
00 15.02
03 15.02
06 15.02
09 15.02
12 15.02
15 15.02
18 15.02
21 15.02
00 16.02
03 16.02
06 16.02
09 16.02
12 16.02
15 16.02
18 16.02
21 16.02
00 17.02
03 17.02
06 17.02
09 17.02
12 17.02
15 17.02
18 17.02
21 17.02
00 18.02
03 18.02
06 18.02
09 18.02
12 18.02
15 18.02
18 18.02
21 18.02
00 19.02
03 19.02
06 19.02
09 19.02
12 19.02
15 19.02
18 19.02
21 19.02
00 20.02
03 20.02
06 20.02
09 20.02
12 20.02
15 20.02
18 20.02
21 20.02
03 21.02
06 21.02
09 21.02
12 21.02
15 21.02
Ветер
(напр.,м/с)
Видим. Явления Облачность Т
(С)
Тd
(С)
f
(%)
Тe
(С)
Тes
(С)
Комфортность P
(гПа)
Po
(гПа)
Тmin
(С)
Tmax
(С)
R
(мм)
R24
(мм)
S
(см)
ЮВ 3 10 км ясно +8.7 +7.7 93 +6 +6 по сезону 1021.0 1020.8 +12.4
В 3 20 км дымка ясно +8.1 +7.2 94 +6 +6 тепло 1024.1 1023.8
СВ 3 4000 м дымка ясно +4.4 +3.9 97 0 0 по сезону 1025.5 1025.2
С 2 4000 м дымка ясно +4.2 +3.1 93 +1 +1 по сезону 1026.8 1026.5
СВ 3 10 км ясно +2.8 +0.5 85 -1 -1 по сезону 1027.6 1027.3 +2.7
СВ 3 10 км ясно +7.8 +3.1 72 +5 +8 по сезону 1029.0 1028.7
ЮВ 2 30 км 5/0
[Cs]
+13.1 +5.9 62 +13 +17 тепло 1028.2 1028.0
Ю 2 10 км ясно +11.7 +5.7 67 +11 +12 тепло 1027.7 1027.4
В 1 10 км ясно +8.7 +6.1 84 +9 +9 тепло 1028.0 1027.7 +13.4
СЗ 1 10 км ясно +5.8 +4.8 93 +4 +4 по сезону 1028.7 1028.5
В 1 н/о н/о +5.3 +3.8 90 +4 +4 по сезону 1028.1 1027.8
С 1 н/о н/о +3.6 +2.7 94 +3 +3 по сезону 1028.5 1028.2
С 3 10 км ясно +2.9 +1.7 92 -1 -1 по сезону 1028.8 1028.5 +2.8
СВ 2 10 км ясно +8.3 +4.5 77 +6 +11 тепло 1029.8 1029.5
В 3 10 км ясно +11.5 +4.7 63 +10 +15 тепло 1029.2 1029.0
ЮВ 2 25 км 5/0
[Cc]
+12.0 +4.3 59 +11 +12 тепло 1028.5 1028.2
ЮВ 2 20 км 4/0
[Ci fib]
+8.6 +6.5 87 +7 +7 тепло 1028.7 1028.4 +13.1
ЮЗ 2 200 м туман местами н/о +7.0 +6.8 99 +5 +5 по сезону 1028.8 1028.5
600 м туман ясно +5.3 +5.1 99 1028.0 1027.7 0.2
ЮВ 2 600 м туман ясно +7.4 +7.2 99 +6 +6 тепло 1027.2 1026.9
Ю 2 1500 м дымка {туман} 10/10 30 м
[Frnb]
+8.0 +7.8 99 +6 +6 тепло 1026.6 1026.4 +5.1 0.2
СВ 2 600 м туман 10/10 60 м
[Frnb]
+7.3 +7.1 99 +5 +5 по сезону 1026.8 1026.5
СВ 3 600 м туман 10/10 60 м
[Frnb]
+8.3 +8.1 99 +6 +6 по сезону 1025.7 1025.4
В 2 2000 м дымка {туман} 10/9 60 м
[Frnb Ac und]
+9.2 +8.1 93 +7 +7 тепло 1023.8 1023.6
СВ 2 4000 м 10/5 180 м
[Frnb]
+8.3 +6.9 91 +6 +6 тепло 1023.6 1023.4 +9.3
В 2 3000 м дымка 10/9 300 м
[Frnb As op]
+8.1 +7.1 93 +6 +6 тепло 1023.4 1023.1
С 2 2000 м дымка 9/9 540 м
[Sc]
+8.0 +7.2 95 +6 +6 тепло 1023.4 1023.1
С 2 1200 м дымка 9/9 500 м
[Sc]
+7.9 +7.1 95 +6 +6 тепло 1022.5 1022.2
С 1 2000 м дымка 9/9 600 м
[Sc]
+8.2 +7.0 92 +7 +7 тепло 1023.3 1023.0 +7.6
нст 1 3000 м дымка 1/1 450 м
[Frnb Ac trans]
+10.1 +7.3 83 +10 +14 тепло 1025.1 1024.9
Ю 2 4000 м дымка 9/9 660 м
[Sc]
+11.4 +7.6 77 +11 +11 тепло 1024.3 1024.1
Ю 1 6000 м дымка ясно +12.6 +8.2 75 +13 +14 тепло 1023.2 1023.0
штиль 0 5000 м дымка ясно +9.6 +8.4 92 +9 +9 тепло 1023.7 1023.5 +12.9
Ю 1 2000 м туман местами ясно +7.6 +7.3 98 +8 +8 тепло 1024.5 1024.2
штиль 0 600 м туман ясно +3.9 +3.7 99 +3 +3 по сезону 1023.6 1023.3
СВ 3 30 км {туман} ясно +4.2 +4.0 99 0 0 по сезону 1021.7 1021.4
С 3 30 км {туман} 5/1 900 м
[Cu Sc Ac trans Ci fib]
+4.5 +3.4 93 +1 +1 по сезону 1021.3 1021.0 +2.9
СВ 3 10 км 1/1 1500 м
[Sc]
+8.9 +5.1 77 +6 +10 тепло 1021.2 1021.0
ЮВ 2 10 км 1/1 2000 м
[Sc]
+11.4 +4.3 62 +10 +16 тепло 1019.2 1019.0
Ю 2 10 км ясно +12.1 +5.1 62 +12 +13 тепло 1017.2 1017.0
ЮВ 2 20 км 5/5 1200 м
[Sc diur, vesp]
+10.3 +6.3 76 +9 +9 тепло 1018.3 1018.1 +12.8
С 2 20 км ясно +8.0 +1.0 61 +7 +7 тепло 1020.7 1020.5
З 2 10 км ясно +4.5 +2.7 88 +2 +2 по сезону 1022.8 1022.6
С 2 н/о н/о +3.3 +1.4 87 +1 +1 по сезону 1023.6 1023.3
нст 1 10 км ясно +2.0 +0.5 90 0 0 по сезону 1025.3 1025.0 +1.3
СВ 2 30 км ясно +8.1 +3.7 74 +6 +11 по сезону 1026.7 1026.4
ЮВ 3 10 км ясно +10.8 +2.2 55 +9 +15 по сезону 1025.8 1025.6
Ю 3 30 км ясно +11.2 +2.7 56 +10 +11 тепло 1024.6 1024.4
Ю 3 30 км ясно +9.9 +3.5 64 +8 +8 тепло 1024.4 1024.2 +11.7
ЮЗ 3 30 км ?/? +8.8 +4.5 74 +6 +6 тепло 1024.4 1024.1
С 3 30 км ясно +2.5 +0.5 87 -1 -1 по сезону 1022.6 1022.3
СВ 3 25 км ясно +0.9 -0.9 88 -4 -4 прохладно 1022.2 1021.9 +0.6
СВ 4 30 км ясно +6.9 +1.4 68 +4 +7 по сезону 1024.1 1023.8
В 2 30 км 6/1 900 м
[Cu hum Cs]
+10.8 +3.9 62 +10 +15 тепло 1024.6 1024.4
СВ 2 20 км ясно +11.9 +4.0 58 +11 +13 тепло 1025.2 1025.0
Местоположение метеостанции Венеция (Италия): широта 45.50 долгота 12.33 высота над уровнем моря 6 м.
В архиве по умолчанию представлена погода в Венеции за последнюю неделю. Архивные данные за месяц целиком и за предыдущие месяцы, начиная с января 2011 года, Вы можете получить, выбрав интересующий диапазон дат из раскрывающегося списка и нажав кнопку "Найти!".
*Определитесь, кто Вы:
Внимание! Время в таблицах - всемирное. Для получения местного времени необходимо прибавить поправку, которая равна 1 ч.
Смотрите также архив погоды в соседних городах и на ближайших метеорологических станциях:
Партнеры нашего сайта:      
Пояснения к столбцам:
  • Ветер - указаны скорость ветра в м/с - средняя за 10 мин, порывы в срок и между сроками (в фигурных скобках) и направление, откуда дует ветер: С - северный,
  • СВ - северо-восточный, В - восточный, ЮВ - юго-восточный, Ю - южный, ЮЗ - юго-западный, З - западный, СЗ - северо-западный.
  • Видимость - горизонтальная дальность видимости в метрах или километрах. При видимости от 1 до 10 км при отсутствии осадков обычно наблюдается дымка, при ухудшении видимости до 1 км и менее - туман. В сухую погоду видимость может ухудшаться дымом, пылью или мглою.
  • Явления - указаны атмосферные явления, наблюдавшиеся в срок или в последний час перед сроком; фигурными скобками обозначены явления, наблюдавшиеся между сроками (за 1-3 часа до срока); квадратными скобками обозначены град или гололедные отложения с указанием их диаметра в мм.
  • Облачность - указаны через наклонную черту общая и нижняя облачность в баллах и высота нижней границы облаков в метрах; квадратными скобками обозначены формы облаков: Ci - перистые, Cs - перисто-слоистые, Cc - перисто-кучевые, Ac - высококучевые, As - высокослоистые, Sc - слоисто-кучевые, Ns - слоисто-дождевые, Cu - кучевые, Cb - кучево-дождевые. Подробнее классификацию облаков см. в Атласе облаков (PDF).
  • T - Температура воздуха - температура, измеренная на высоте 2 м над землей.
  • Td - Температура точки росы - температура, при понижении до которой содержащийся в воздухе водяной пар достигнет насыщения.
  • f - Относительная влажность воздуха - влажноcть воздуха, измеренная на высоте 2 м над землей.
  • Te - Эффективная температура - температура, которую ощущает одетый по сезону человек в тени. Характеристика душности погоды. При расчете учитывается влияние влажности воздуха и скорости ветра на теплоощущения человека.
  • Tes - Эффективная температура на солнце - температура, которую ощущает человек, с поправкой на солнечный нагрев. Характеристика знойности погоды. Зависит от высоты солнца над горизонтом, облачности и скорости ветра. Ночью, в пасмурную погоду, а также при ветре 12 м/с и более поправка равна нулю.
  • P - Атмосферное давление - приведенное к уровню моря атмосферное давление.
  • Po - Атмосферное давление - измеренное на уровне метеостанции атмосферное давление.
  • Tmin - Минимальная температура - минимум температуры воздуха на высоте 2 м над землей.
  • Tmax - Максимальная температура - максимум температуры воздуха на высоте 2 м над землей.
  • R - Количество осадков - Количество выпавших осадков за период времени, мм. При наведении курсора мыши на число - период времени, за который выпало указанное количество осадков.
  • R24 - Количество осадков - Количество выпавших осадков за 24 часа, мм.
  • S - Снежный покров - Высота снежного покрова, см. При наведении курсора мыши на число - состояние снежного покрова и степень покрытия местности в баллах.